Regional Weather Roundup
Issued by NWS Goodland, KS

Home | Current Version | Previous Version | Text Only | Print | Product List | Glossary Off
Versions: 1 2 3 4 5 6 7 8 9 10 11 12 13 14 15 16 17 18 19 20 21 22 23 24 25 26 27 28 29 30 31 32 33 34 35 36 37 38 39 40 41 42 43 44 45 46 47 48 49 50

000
ASUS43 KGLD 301308
RWRGLD

GOODLAND FORECAST AREA HOURLY WEATHER ROUNDUP
NATIONAL WEATHER SERVICE GOODLAND KS
700 AM MDT FRI SEP 30 2016

...OFFICIAL OBSERVATIONS...

CITY           SKY/WX    TMP DP  RH WIND       PRES   REMARKS
GOODLAND KS    CLEAR     47  42  83 S15       30.21F
HILL CITY KS   CLOUDY    43  41  93 E5        30.28S FOG
IMPERIAL NEB   CLOUDY    44  41  89 SE9       30.24S
MCCOOK NEB     CLEAR     44  42  93 E5        30.26F
AKRON CO       CLOUDY    44  38  79 E6        30.19S
BURLINGTON CO  CLOUDY    45  39  79 SE13      30.20S
LIMON CO       CLOUDY    38  35  89 CALM      30.22S
$$

...UNOFFICIAL OBSERVATIONS...

CITY           SKY/WX    TMP DP  RH WIND       PRES   REMARKS
COLBY KS       CLEAR     46  46 100 SE8       30.25F
LENORA KS        N/A     47  32  56 MISG        N/A
NORTON KS      CLEAR     43  37  81 CALM      30.26F
SHARON SPRINGS   N/A     45  42  89 SE12G20     N/A
TRIBUNE KS     PTCLDY    45  43  93 E7        30.24S
KIT CARSON CO    N/A     45  39  81 CALM        N/A
$$




USA.gov is the U.S. government's official web portal to all federal, state and local government web resources and services.